Time,TemperatureF,DewpointF,PressureIn,WindDirection,WindDirectionDegrees,WindSpeedMPH,WindSpeedGustMPH,Humidity,HourlyPrecipIn,Conditions,Clouds,dailyrainin,SoftwareType,DateUTC
2013-05-01 00:02:00,69.0,49.0,-100.00,ENE,60,0.0,2.0,49,0.00,,,-99.99,,2013-05-01 05:02:00,
2013-05-01 00:11:00,65.0,48.0,-100.00,ENE,60,3.0,3.0,54,0.00,,,-99.99,,2013-05-01 05:11:00,
2013-05-01 00:21:00,64.0,49.0,-100.00,ENE,65,2.0,4.0,56,0.00,,,-99.99,,2013-05-01 05:21:00,
2013-05-01 00:32:00,63.0,51.0,-100.00,North,10,6.0,6.0,63,0.00,,,-99.99,,2013-05-01 05:32:00,
2013-05-01 00:41:00,63.0,51.0,-100.00,North,10,6.0,6.0,63,0.00,,,-99.99,,2013-05-01 05:41:00,
2013-05-01 00:52:00,62.0,52.0,-100.00,NNE,20,6.0,7.0,69,0.00,,,-99.99,,2013-05-01 05:52:00,
2013-05-01 01:02:00,62.0,52.0,-100.00,NNE,20,6.0,7.0,69,0.00,,,-99.99,,2013-05-01 06:02:00,
2013-05-01 01:11:00,61.0,51.0,-100.00,NNE,15,5.0,7.0,70,0.00,,,-99.99,,2013-05-01 06:11:00,
2013-05-01 01:22:00,60.0,51.0,-100.00,NNW,345,4.0,6.0,72,0.00,,,-99.99,,2013-05-01 06:22:00,
2013-05-01 01:32:00,59.0,51.0,-100.00,North,350,5.0,7.0,73,0.00,,,-99.99,,2013-05-01 06:32:00,
2013-05-01 01:42:00,59.0,51.0,-100.00,North,350,5.0,7.0,73,0.00,,,-99.99,,2013-05-01 06:42:00,
2013-05-01 01:51:00,58.0,50.0,-100.00,North,0,7.0,9.0,74,0.00,,,-99.99,,2013-05-01 06:51:00,
2013-05-01 02:01:00,58.0,50.0,-100.00,North,0,7.0,9.0,74,0.00,,,-99.99,,2013-05-01 07:01:00,
2013-05-01 02:11:00,58.0,50.0,-100.00,NNE,20,7.0,9.0,75,0.00,,,-99.99,,2013-05-01 07:11:00,
2013-05-01 02:21:00,58.0,50.0,-100.00,NNE,15,7.0,10.0,75,0.00,,,-99.99,,2013-05-01 07:21:00,
2013-05-01 02:32:00,57.0,49.0,-100.00,North,5,7.0,10.0,73,0.00,,,-99.99,,2013-05-01 07:32:00,
2013-05-01 02:41:00,57.0,49.0,-100.00,North,5,7.0,10.0,73,0.00,,,-99.99,,2013-05-01 07:41:00,
2013-05-01 02:52:00,56.0,47.0,-100.00,NNE,20,6.0,8.0,72,0.00,,,-99.99,,2013-05-01 07:52:00,
2013-05-01 03:01:00,56.0,47.0,-100.00,NNE,20,6.0,8.0,72,0.00,,,-99.99,,2013-05-01 08:01:00,
2013-05-01 03:11:00,55.0,46.0,-100.00,NNE,15,6.0,8.0,71,0.00,,,-99.99,,2013-05-01 08:11:00,
2013-05-01 03:21:00,55.0,46.0,-100.00,North,10,6.0,7.0,72,0.00,,,-99.99,,2013-05-01 08:21:00,
2013-05-01 03:32:00,54.0,46.0,-100.00,NNE,20,6.0,7.0,73,0.00,,,-99.99,,2013-05-01 08:32:00,
2013-05-01 03:42:00,54.0,46.0,-100.00,NNE,20,6.0,7.0,73,0.00,,,-99.99,,2013-05-01 08:42:00,
2013-05-01 03:52:00,54.0,46.0,-100.00,North,0,5.0,6.0,74,0.00,,,-99.99,,2013-05-01 08:52:00,
2013-05-01 04:01:00,54.0,46.0,-100.00,North,0,5.0,6.0,74,0.00,,,-99.99,,2013-05-01 09:01:00,
2013-05-01 04:11:00,54.0,46.0,-100.00,North,5,6.0,7.0,74,0.00,,,-99.99,,2013-05-01 09:11:00,
2013-05-01 04:21:00,54.0,46.0,-100.00,North,0,8.0,11.0,75,0.00,,,-99.99,,2013-05-01 09:21:00,
2013-05-01 04:33:00,53.0,46.0,-100.00,North,0,6.0,9.0,77,0.00,,,-99.99,,2013-05-01 09:33:00,
2013-05-01 04:42:00,53.0,46.0,-100.00,North,0,6.0,9.0,77,0.00,,,-99.99,,2013-05-01 09:42:00,
2013-05-01 04:52:00,53.0,46.0,-100.00,North,355,5.0,12.0,77,0.00,,,-99.99,,2013-05-01 09:52:00,
2013-05-01 05:02:00,53.0,46.0,-100.00,North,355,5.0,12.0,77,0.00,,,-99.99,,2013-05-01 10:02:00,
2013-05-01 05:12:00,53.0,47.0,-100.00,North,350,7.0,13.0,79,0.00,,,-99.99,,2013-05-01 10:12:00,
2013-05-01 05:22:00,53.0,48.0,-100.00,North,0,8.0,16.0,82,0.00,,,-99.99,,2013-05-01 10:22:00,
2013-05-01 05:33:00,53.0,49.0,-100.00,North,0,7.0,13.0,84,0.00,,,-99.99,,2013-05-01 10:33:00,
2013-05-01 05:42:00,53.0,49.0,-100.00,North,0,7.0,13.0,84,0.00,,,-99.99,,2013-05-01 10:42:00,
2013-05-01 05:52:00,53.0,49.0,-100.00,North,0,4.0,10.0,85,0.00,,,-99.99,,2013-05-01 10:52:00,
2013-05-01 06:02:00,53.0,49.0,-100.00,North,0,4.0,10.0,85,0.00,,,-99.99,,2013-05-01 11:02:00,
2013-05-01 06:11:00,53.0,49.0,-100.00,North,0,4.0,6.0,86,0.00,,,-99.99,,2013-05-01 11:11:00,
2013-05-01 06:22:00,53.0,48.0,-100.00,North,0,6.0,9.0,86,0.00,,,-99.99,,2013-05-01 11:22:00,
2013-05-01 06:32:00,53.0,49.0,-100.00,North,5,9.0,18.0,85,0.00,,,-99.99,,2013-05-01 11:32:00,
2013-05-01 06:42:00,53.0,49.0,-100.00,North,5,9.0,18.0,85,0.00,,,-99.99,,2013-05-01 11:42:00,
2013-05-01 06:51:00,53.0,49.0,-100.00,North,0,8.0,15.0,87,0.00,,,-99.99,,2013-05-01 11:51:00,
2013-05-01 07:01:00,53.0,49.0,-100.00,North,0,8.0,15.0,87,0.00,,,-99.99,,2013-05-01 12:01:00,
2013-05-01 07:11:00,53.0,49.0,-100.00,North,355,7.0,16.0,87,0.00,,,-99.99,,2013-05-01 12:11:00,
2013-05-01 07:21:00,53.0,49.0,-100.00,North,355,11.0,21.0,87,0.00,,,-99.99,,2013-05-01 12:21:00,
2013-05-01 07:31:00,54.0,50.0,-100.00,North,0,13.0,22.0,86,0.00,,,-99.99,,2013-05-01 12:31:00,
2013-05-01 07:41:00,54.0,50.0,-100.00,North,0,13.0,22.0,86,0.00,,,-99.99,,2013-05-01 12:41:00,
2013-05-01 07:51:00,55.0,50.0,-100.00,NNE,15,12.0,22.0,82,0.00,,,-99.99,,2013-05-01 12:51:00,
2013-05-01 08:01:00,55.0,50.0,-100.00,NNE,15,12.0,22.0,82,0.00,,,-99.99,,2013-05-01 13:01:00,
2013-05-01 08:11:00,55.0,50.0,-100.00,North,10,13.0,22.0,81,0.00,,,-99.99,,2013-05-01 13:11:00,
2013-05-01 08:21:00,56.0,50.0,-100.00,North,5,11.0,21.0,79,0.00,,,-99.99,,2013-05-01 13:21:00,
2013-05-01 08:32:00,56.0,49.0,-100.00,NNE,20,13.0,20.0,76,0.00,,,-99.99,,2013-05-01 13:32:00,
2013-05-01 08:42:00,56.0,49.0,-100.00,NNE,20,13.0,20.0,76,0.00,,,-99.99,,2013-05-01 13:42:00,
2013-05-01 08:52:00,57.0,48.0,-100.00,NNE,20,17.0,22.0,70,0.00,,,-99.99,,2013-05-01 13:52:00,
2013-05-01 09:02:00,57.0,48.0,-100.00,NNE,20,17.0,22.0,70,0.00,,,-99.99,,2013-05-01 14:02:00,
2013-05-01 09:11:00,58.0,47.0,-100.00,NNE,25,16.0,23.0,67,0.00,,,-99.99,,2013-05-01 14:11:00,
2013-05-01 09:21:00,58.0,47.0,-100.00,NE,35,15.0,20.0,66,0.00,,,-99.99,,2013-05-01 14:21:00,
2013-05-01 09:32:00,60.0,48.0,-100.00,NNE,25,12.0,17.0,64,0.00,,,-99.99,,2013-05-01 14:32:00,
2013-05-01 09:41:00,60.0,48.0,-100.00,NNE,25,12.0,17.0,64,0.00,,,-99.99,,2013-05-01 14:41:00,
2013-05-01 09:51:00,60.0,47.0,-100.00,NNE,30,12.0,19.0,61,0.00,,,-99.99,,2013-05-01 14:51:00,
2013-05-01 10:01:00,60.0,47.0,-100.00,NNE,30,12.0,19.0,61,0.00,,,-99.99,,2013-05-01 15:01:00,
2013-05-01 10:11:00,60.0,47.0,-100.00,NNE,25,12.0,17.0,61,0.00,,,-99.99,,2013-05-01 15:11:00,
2013-05-01 10:21:00,61.0,47.0,-100.00,NNE,15,12.0,20.0,59,0.00,,,-99.99,,2013-05-01 15:21:00,
2013-05-01 10:33:00,62.0,47.0,-100.00,North,0,12.0,20.0,56,0.00,,,-99.99,,2013-05-01 15:33:00,
2013-05-01 10:42:00,62.0,47.0,-100.00,North,0,12.0,20.0,56,0.00,,,-99.99,,2013-05-01 15:42:00,
2013-05-01 10:53:00,63.0,47.0,-100.00,North,10,11.0,18.0,55,0.00,,,-99.99,,2013-05-01 15:53:00,
2013-05-01 11:03:00,63.0,47.0,-100.00,North,10,11.0,18.0,55,0.00,,,-99.99,,2013-05-01 16:03:00,
2013-05-01 11:12:00,63.0,47.0,-100.00,NNE,25,11.0,16.0,55,0.00,,,-99.99,,2013-05-01 16:12:00,
2013-05-01 11:22:00,64.0,47.0,-100.00,North,5,11.0,16.0,53,0.00,,,-99.99,,2013-05-01 16:22:00,
2013-05-01 11:32:00,64.0,46.0,-100.00,North,5,11.0,21.0,51,0.00,,,-99.99,,2013-05-01 16:32:00,
2013-05-01 11:42:00,64.0,46.0,-100.00,North,5,11.0,21.0,51,0.00,,,-99.99,,2013-05-01 16:42:00,
2013-05-01 11:53:00,64.0,46.0,-100.00,North,0,17.0,22.0,51,0.00,,,-99.99,,2013-05-01 16:53:00,
2013-05-01 12:02:00,64.0,46.0,-100.00,North,0,17.0,22.0,51,0.00,,,-99.99,,2013-05-01 17:02:00,
2013-05-01 12:12:00,66.0,47.0,-100.00,North,5,9.0,23.0,50,0.00,,,-99.99,,2013-05-01 17:12:00,
2013-05-01 12:21:00,66.0,47.0,-100.00,North,355,10.0,20.0,50,0.00,,,-99.99,,2013-05-01 17:21:00,
2013-05-01 12:32:00,66.0,47.0,-100.00,North,0,12.0,20.0,50,0.00,,,-99.99,,2013-05-01 17:32:00,
2013-05-01 12:42:00,66.0,47.0,-100.00,North,0,12.0,20.0,50,0.00,,,-99.99,,2013-05-01 17:42:00,
2013-05-01 12:52:00,67.0,47.0,-100.00,NNE,15,11.0,23.0,50,0.00,,,-99.99,,2013-05-01 17:52:00,
2013-05-01 13:01:00,67.0,47.0,-100.00,NNE,15,11.0,23.0,50,0.00,,,-99.99,,2013-05-01 18:01:00,
2013-05-01 13:11:00,67.0,48.0,-100.00,North,355,13.0,20.0,49,0.00,,,-99.99,,2013-05-01 18:11:00,
2013-05-01 13:22:00,68.0,48.0,-100.00,North,355,12.0,19.0,49,0.00,,,-99.99,,2013-05-01 18:22:00,
2013-05-01 13:32:00,68.0,48.0,-100.00,NNE,30,10.0,14.0,49,0.00,,,-99.99,,2013-05-01 18:32:00,
2013-05-01 13:41:00,68.0,48.0,-100.00,NNE,30,10.0,14.0,49,0.00,,,-99.99,,2013-05-01 18:41:00,
2013-05-01 13:52:00,68.0,47.0,-100.00,NE,35,11.0,17.0,47,0.00,,,-99.99,,2013-05-01 18:52:00,
2013-05-01 14:02:00,68.0,47.0,-100.00,NE,35,11.0,17.0,47,0.00,,,-99.99,,2013-05-01 19:02:00,
2013-05-01 14:11:00,69.0,48.0,-100.00,North,0,9.0,17.0,47,0.00,,,-99.99,,2013-05-01 19:11:00,
2013-05-01 14:22:00,68.0,47.0,-100.00,NE,35,10.0,21.0,48,0.00,,,-99.99,,2013-05-01 19:22:00,
2013-05-01 14:32:00,68.0,48.0,-100.00,North,10,9.0,19.0,47,0.00,,,-99.99,,2013-05-01 19:32:00,
2013-05-01 14:42:00,68.0,48.0,-100.00,North,10,9.0,19.0,47,0.00,,,-99.99,,2013-05-01 19:42:00,
2013-05-01 14:52:00,68.0,47.0,-100.00,North,5,10.0,16.0,47,0.00,,,-99.99,,2013-05-01 19:52:00,
2013-05-01 15:01:00,68.0,47.0,-100.00,North,5,10.0,16.0,47,0.00,,,-99.99,,2013-05-01 20:01:00,
2013-05-01 15:11:00,69.0,48.0,-100.00,NNE,15,8.0,15.0,47,0.00,,,-99.99,,2013-05-01 20:11:00,
2013-05-01 15:21:00,69.0,48.0,-100.00,NNE,25,8.0,17.0,47,0.00,,,-99.99,,2013-05-01 20:21:00,
2013-05-01 15:32:00,69.0,48.0,-100.00,North,0,20.0,27.0,47,0.00,,,-99.99,,2013-05-01 20:32:00,
2013-05-01 15:42:00,69.0,48.0,-100.00,North,0,20.0,27.0,47,0.00,,,-99.99,,2013-05-01 20:42:00,
2013-05-01 15:52:00,68.0,48.0,-100.00,North,0,13.0,26.0,48,0.00,,,-99.99,,2013-05-01 20:52:00,
2013-05-01 16:01:00,68.0,48.0,-100.00,North,0,13.0,26.0,48,0.00,,,-99.99,,2013-05-01 21:01:00,
2013-05-01 16:11:00,69.0,48.0,-100.00,North,0,17.0,26.0,48,0.00,,,-99.99,,2013-05-01 21:11:00,
2013-05-01 16:22:00,67.0,47.0,-100.00,North,0,21.0,29.0,48,0.00,,,-99.99,,2013-05-01 21:22:00,
2013-05-01 16:32:00,65.0,46.0,-100.00,North,350,22.0,29.0,50,0.00,,,-99.99,,2013-05-01 21:32:00,
2013-05-01 16:43:00,65.0,46.0,-100.00,North,350,22.0,29.0,50,0.00,,,-99.99,,2013-05-01 21:43:00,
2013-05-01 16:53:00,63.0,45.0,-100.00,North,0,24.0,35.0,51,0.00,,,-99.99,,2013-05-01 21:53:00,
2013-05-01 17:03:00,63.0,45.0,-100.00,North,0,24.0,35.0,51,0.00,,,-99.99,,2013-05-01 22:03:00,
2013-05-01 17:12:00,62.0,44.0,-100.00,NNW,335,16.0,32.0,53,0.00,,,-99.99,,2013-05-01 22:12:00,
2013-05-01 17:23:00,62.0,45.0,-100.00,NNW,345,21.0,30.0,54,0.00,,,-99.99,,2013-05-01 22:23:00,
2013-05-01 17:33:00,59.0,43.0,-100.00,North,350,26.0,35.0,55,0.00,,,-99.99,,2013-05-01 22:33:00,
2013-05-01 17:42:00,59.0,43.0,-100.00,North,350,26.0,35.0,55,0.00,,,-99.99,,2013-05-01 22:42:00,
2013-05-01 17:52:00,58.0,43.0,-100.00,North,0,26.0,37.0,57,0.00,,,-99.99,,2013-05-01 22:52:00,
2013-05-01 18:02:00,58.0,43.0,-100.00,North,0,26.0,37.0,57,0.00,,,-99.99,,2013-05-01 23:02:00,
2013-05-01 18:11:00,57.0,43.0,-100.00,North,355,21.0,32.0,58,0.00,,,-99.99,,2013-05-01 23:11:00,
2013-05-01 18:21:00,55.0,42.0,-100.00,NNW,345,22.0,34.0,61,0.00,,,-99.99,,2013-05-01 23:21:00,
2013-05-01 18:32:00,50.0,40.0,-100.00,North,350,28.0,35.0,67,0.00,,,-99.99,,2013-05-01 23:32:00,
2013-05-01 18:42:00,50.0,40.0,-100.00,North,350,28.0,35.0,67,0.00,,,-99.99,,2013-05-01 23:42:00,
2013-05-01 18:52:00,48.0,40.0,-100.00,North,0,24.0,35.0,74,0.00,,,-99.99,,2013-05-01 23:52:00,
2013-05-01 19:01:00,48.0,40.0,-100.00,North,0,24.0,35.0,74,0.00,,,-99.99,,2013-05-02 00:01:00,
2013-05-01 19:11:00,48.0,41.0,-100.00,North,0,24.0,34.0,75,0.00,,,-99.99,,2013-05-02 00:11:00,
2013-05-01 19:21:00,48.0,41.0,-100.00,NNW,345,24.0,35.0,76,0.00,,,-99.99,,2013-05-02 00:21:00,
2013-05-01 19:32:00,47.0,40.0,-100.00,North,0,24.0,33.0,77,0.00,,,-99.99,,2013-05-02 00:32:00,
2013-05-01 19:41:00,47.0,40.0,-100.00,North,0,24.0,33.0,77,0.00,,,-99.99,,2013-05-02 00:41:00,
2013-05-01 19:52:00,46.0,40.0,-100.00,North,0,21.0,35.0,78,0.00,,,-99.99,,2013-05-02 00:52:00,
2013-05-01 20:01:00,46.0,40.0,-100.00,North,0,21.0,35.0,78,0.00,,,-99.99,,2013-05-02 01:01:00,
2013-05-01 20:11:00,46.0,40.0,-100.00,North,0,21.0,35.0,78,0.00,,,-99.99,,2013-05-02 01:11:00,
2013-05-01 20:21:00,46.0,40.0,-100.00,North,0,18.0,35.0,78,0.00,,,-99.99,,2013-05-02 01:21:00,
2013-05-01 20:32:00,45.0,39.0,-100.00,North,0,19.0,35.0,79,0.00,,,-99.99,,2013-05-02 01:32:00,
2013-05-01 20:42:00,45.0,39.0,-100.00,North,0,19.0,35.0,79,0.00,,,-99.99,,2013-05-02 01:42:00,
2013-05-01 20:52:00,44.0,38.0,-100.00,North,0,21.0,30.0,79,0.00,,,-99.99,,2013-05-02 01:52:00,
2013-05-01 21:02:00,44.0,38.0,-100.00,North,0,21.0,30.0,79,0.00,,,-99.99,,2013-05-02 02:02:00,
2013-05-01 21:11:00,44.0,38.0,-100.00,North,0,24.0,34.0,79,0.00,,,-99.99,,2013-05-02 02:11:00,
2013-05-01 21:21:00,44.0,38.0,-100.00,North,0,21.0,31.0,79,0.00,,,-99.99,,2013-05-02 02:21:00,
2013-05-01 21:32:00,44.0,38.0,-100.00,North,5,17.0,31.0,80,0.00,,,-99.99,,2013-05-02 02:32:00,
2013-05-01 21:42:00,44.0,38.0,-100.00,North,5,17.0,31.0,80,0.00,,,-99.99,,2013-05-02 02:42:00,
2013-05-01 21:51:00,44.0,38.0,-100.00,North,5,17.0,31.0,80,0.00,,,-99.99,,2013-05-02 02:51:00,
2013-05-01 22:01:00,44.0,38.0,-100.00,North,0,16.0,27.0,79,0.00,,,-99.99,,2013-05-02 03:01:00,
2013-05-01 22:11:00,44.0,38.0,-100.00,North,0,16.0,27.0,80,0.00,,,-99.99,,2013-05-02 03:11:00,
2013-05-01 22:22:00,44.0,38.0,-100.00,North,0,17.0,30.0,80,0.00,,,-99.99,,2013-05-02 03:22:00,
2013-05-01 22:32:00,43.0,38.0,-100.00,North,0,20.0,27.0,80,0.00,,,-99.99,,2013-05-02 03:32:00,
2013-05-01 22:42:00,43.0,38.0,-100.00,North,0,20.0,27.0,80,0.00,,,-99.99,,2013-05-02 03:42:00,
2013-05-01 22:52:00,43.0,38.0,-100.00,North,0,22.0,30.0,82,0.00,,,-99.99,,2013-05-02 03:52:00,
2013-05-01 23:03:00,43.0,38.0,-100.00,North,0,22.0,30.0,82,0.00,,,-99.99,,2013-05-02 04:03:00,
2013-05-01 23:12:00,43.0,38.0,-100.00,North,0,24.0,31.0,82,0.00,,,-99.99,,2013-05-02 04:12:00,
2013-05-01 23:23:00,43.0,38.0,-100.00,North,0,23.0,32.0,82,0.00,,,-99.99,,2013-05-02 04:23:00,
2013-05-01 23:33:00,43.0,38.0,-100.00,North,5,19.0,34.0,82,0.00,,,-99.99,,2013-05-02 04:33:00,
2013-05-01 23:42:00,43.0,38.0,-100.00,North,5,19.0,34.0,82,0.00,,,-99.99,,2013-05-02 04:42:00,
2013-05-01 23:52:00,43.0,38.0,-100.00,North,0,20.0,32.0,82,0.00,,,-99.99,,2013-05-02 04:52:00,